Kirksville, MO

5:01 AM CDT on May 21, 2018 (GMT -0500)
Kirksville Regional

Weather History for KIRK - October, 2014

Change the Weather History Date:

Wednesday, October 29, 2014

  Actual Average Record
Temperature  
Mean Temperature 46 °F 48 °F  
Max Temperature 56 °F 59 °F 87 °F (1937)
Min Temperature 35 °F 38 °F 15 °F (1925)
Degree Days  
Heating Degree Days 19 17  
Month to date heating degree days 284 346  
Since 1 July heating degree days 390 453  
Cooling Degree Days 0 0  
Month to date cooling degree days 3 10  
Year to date cooling degree days 958 937  
Moisture  
Dew Point 34 °F    
Average Humidity 70    
Maximum Humidity 92    
Minimum Humidity 47    
Precipitation  
Precipitation 0.00 in 0.09 in 1.15 in (1929)
Month to date precipitation 4.02 3.15  
Year to date precipitation 42.18 34.67  
Sea Level Pressure  
Sea Level Pressure 30.19 in    
Wind  
Wind Speed 6 mph (WNW)    
Max Wind Speed 15 mph    
Max Gust Speed 20 mph    
Visibility 10 miles    
Events      
T = Trace of Precipitation, MM = Missing Value Source: NWS Daily Summary

Daily Weather History Graph

Daily Weather History Graph

Search for Another Location

Airport or City:

Astronomy

Oct. 29, 2014 Rise Set
Actual Time 7:35 AM CDT 6:11 PM CDT
Civil Twilight 7:08 AM CDT 6:39 PM CDT
Nautical Twilight 6:36 AM CDT 7:10 PM CDT
Astronomical Twilight 6:04 AM CDT 7:42 PM CDT
Moon 12:55 PM CDT (10/29) 11:21 PM CDT (10/29)
Length of Visible Light 11h 31m
Length of Day
10h 35m
Waxing Crescent, 34% of the Moon is Illuminated
Oct 29
Waxing Crescent
Oct 30
First Quarter
Nov 6
Full
Nov 14
Last Quarter
Nov 22
New

Hourly Weather History & Observations

Time (CDT) Temp. Windchill Dew Point Humidity Pressure Visibility Wind Dir Wind Speed Gust Speed Precip Events Conditions
12:55 AM 43.0 °F 40.3 °F 34.0 °F 71% 30.15 in 10.0 mi NW 4.6 mph - N/A   Clear
1:55 AM 39.0 °F 35.7 °F 33.1 °F 79% 30.15 in 10.0 mi WNW 4.6 mph - N/A   Clear
2:55 AM 39.9 °F 35.8 °F 33.1 °F 77% 30.17 in 10.0 mi West 5.8 mph - N/A   Clear
3:55 AM 39.0 °F 34.8 °F 33.1 °F 79% 30.17 in 10.0 mi West 5.8 mph - N/A   Clear
4:55 AM 37.9 °F 32.7 °F 32.0 °F 79% 30.18 in 10.0 mi West 6.9 mph - N/A   Clear
5:55 AM 37.0 °F 32.4 °F 32.0 °F 82% 30.19 in 10.0 mi West 5.8 mph - N/A   Clear
6:55 AM 35.6 °F 30.7 °F 32.0 °F 87% 30.18 in 10.0 mi West 5.8 mph - N/A   Clear
7:55 AM 37.0 °F 31.6 °F 32.0 °F 82% 30.21 in 10.0 mi WNW 6.9 mph - N/A   Clear
8:55 AM 42.1 °F 37.1 °F 35.1 °F 76% 30.23 in 10.0 mi WNW 8.1 mph - N/A   Clear
9:55 AM 46.0 °F 41.0 °F 35.1 °F 66% 30.24 in 10.0 mi NW 10.4 mph - N/A   Clear
10:55 AM 50.0 °F - 34.0 °F 54% 30.25 in 10.0 mi NW 10.4 mph - N/A   Clear
11:55 AM 51.1 °F - 35.1 °F 54% 30.25 in 10.0 mi NNW 11.5 mph - N/A   Clear
12:55 PM 52.0 °F - 35.1 °F 53% 30.23 in 10.0 mi NNW 9.2 mph - N/A   Clear
1:55 PM 53.1 °F - 35.1 °F 50% 30.21 in 10.0 mi Variable 6.9 mph - N/A   Clear
2:55 PM 55.0 °F - 35.1 °F 47% 30.19 in 10.0 mi West 11.5 mph - N/A   Clear
3:55 PM 55.0 °F - 35.1 °F 47% 30.19 in 10.0 mi West 8.1 mph - N/A   Clear
4:55 PM 55.0 °F - 36.0 °F 49% 30.18 in 10.0 mi West 5.8 mph - N/A   Clear
5:55 PM 50.0 °F - 36.0 °F 59% 30.17 in 10.0 mi West 3.5 mph - N/A   Clear
6:55 PM 46.0 °F - 34.0 °F 63% 30.18 in 10.0 mi Calm Calm - N/A   Clear
7:55 PM 41.0 °F - 36.0 °F 82% 30.19 in 10.0 mi Calm Calm - N/A   Clear
8:55 PM 41.0 °F - 35.1 °F 79% 30.18 in 10.0 mi Calm Calm - N/A   Clear
9:55 PM 39.0 °F - 34.0 °F 82% 30.17 in 10.0 mi Calm Calm - N/A   Clear
10:55 PM 36.0 °F - 33.1 °F 89% 30.18 in 10.0 mi Calm Calm - N/A   Clear
11:55 PM 39.0 °F 34.8 °F 33.1 °F 79% 30.17 in 10.0 mi ESE 5.8 mph - N/A   Clear